Simultaneous Nadir Overpasses (SNOs) Predictions

Prediction of SNOs near equator between NOAA-19 and NPP Satellite Orbit:

Table of predicted SNOs near equator for the next 14.0 days since TLE Epoch: 2/3/2012
Index Date (NOAA-19) Time (NOAA-19) NOAA-19 Lat,Lon Date (NPP) Time (NPP) NPP Lat,Lon Distance(km) Time Diff (sec)
1 02/08/2012 23:30:31 29.97,-154.79 02/08/2012 23:27:32 29.76,-155.79 99.26 179
2 02/09/2012 00:21:31 -30.00, 12.46 02/09/2012 00:18:14 -29.79, 11.53 92.16 197
3 02/09/2012 01:12:37 30.00, 179.68 02/09/2012 01:09:03 29.82, 178.82 85.36 214
4 02/09/2012 02:03:36 -29.97, -13.06 02/09/2012 01:59:44 -29.80, -13.84 78.32 232
5 02/09/2012 02:54:42 29.97, 154.17 02/09/2012 02:50:33 29.82, 153.45 71.53 249
6 02/09/2012 03:45:42 -30.00, -38.59 02/09/2012 03:41:15 -29.86, -39.23 64.42 267
7 02/09/2012 04:36:47 29.94, 128.65 02/09/2012 04:32:03 29.82, 128.07 57.69 284
8 02/09/2012 05:27:47 -29.97, -64.10 02/09/2012 05:22:45 -29.86, -64.61 50.59 302
9 02/09/2012 06:18:53 29.97, 103.12 02/09/2012 06:13:34 29.88, 102.68 43.81 319
10 02/09/2012 07:09:53 -30.00, -89.63 02/09/2012 07:04:16 -29.92, -90.00 36.71 337
11 02/09/2012 08:00:58 29.95, 77.61 02/09/2012 07:55:04 29.88, 77.31 29.98 354
12 02/09/2012 08:51:58 -29.97,-115.15 02/09/2012 08:45:46 -29.92,-115.38 22.88 372
13 02/09/2012 09:43:04 29.98, 52.08 02/09/2012 09:36:35 29.94, 51.91 16.11 389
14 02/09/2012 10:34:03 -29.94,-140.66 02/09/2012 10:27:16 -29.92,-140.75 9.06 407
15 02/09/2012 11:25:09 29.95, 26.56 02/09/2012 11:18:05 29.94, 26.54 2.31 424
16 02/09/2012 12:12:16 -16.53,-162.74 02/09/2012 12:04:56 -16.53,-162.74 0.05 440
17 02/09/2012 12:57:45 -3.31, 9.04 02/09/2012 12:50:08 -3.29, 9.06 2.48 457
18 02/09/2012 13:48:55 2.48, 176.12 02/09/2012 13:41:03 2.44, 176.20 9.50 472
19 02/09/2012 14:40:26 -1.23, -16.95 02/09/2012 14:32:14 -1.17, -16.79 18.83 492
20 02/09/2012 15:31:36 0.41, 150.13 02/09/2012 15:23:08 0.39, 150.36 26.14 508
21 02/09/2012 16:23:06 0.80, -42.93 02/09/2012 16:14:19 0.89, -42.63 35.47 527
22 02/09/2012 17:14:17 -1.66, 124.14 02/09/2012 17:05:14 -1.73, 124.52 42.75 543
23 02/09/2012 18:05:47 2.88, -68.93 02/09/2012 17:56:25 3.00, -68.47 52.08 562
24 02/09/2012 18:56:57 -3.67
